Weather History for Menominee, MI

Change the Weather History Date:

Saturday, October 12, 2013

  Actual Average Record
Temperature  
Mean Temperature 58 °F -  
Max Temperature 66 °F 59 °F 74 °F (1973)
Min Temperature 51 °F 39 °F 25 °F (1988)
Degree Days  
Heating Degree Days 6    
Growing Degree Days 8 (Base 50)    
Moisture  
Dew Point 53 °F    
Average Humidity 76    
Maximum Humidity 94    
Minimum Humidity 52    
Precipitation  
Precipitation 0.14 in - - ()
Sea Level Pressure  
Sea Level Pressure 29.92 in    
Wind  
Wind Speed 10 mph (SSW)    
Max Wind Speed 17 mph    
Max Gust Speed 25 mph    
Visibility 9 miles    
Events Thunderstorm    
Averages and records for this station are not official NWS values.
T = Trace of Precipitation, MM = Missing Value Source: NWS Daily Summary

Daily Weather History Graph

Daily Weather History Graph

Search for Another Location

Airport:

Trip Planner

Search our weather history database for the weather conditions in past years. The results will help you decide how hot, cold, wet, or windy it might be!

Date:

Astronomy

Oct. 12, 2013 Rise Set
Actual Time 7:02 AM CDT 6:10 PM CDT
Civil Twilight 6:33 AM CDT 6:39 PM CDT
Nautical Twilight 5:59 AM CDT 7:13 PM CDT
Astronomical Twilight 5:25 AM CDT 7:47 PM CDT
Moon 2:35 PM CDT (10/12) No Moon Set
Length of Visible Light 12h 06m
Length of Day
11h 07m
First Quarter, 59% of the Moon is Illuminated
Oct 12
First Quarter
Oct 18
Full
Oct 26
Last Quarter
Nov 3
New
Nov 9
First Quarter

Hourly Weather History & Observations

Time (CDT) Temp. Dew Point Humidity Pressure Visibility Wind Dir Wind Speed Gust Speed Precip Events Conditions
12:15 AM 60.8 °F 48.2 °F 63% 29.95 in 10.0 mi South 8.1 mph - N/A   Clear
12:35 AM 60.8 °F 48.2 °F 63% 29.94 in 10.0 mi South 11.5 mph - N/A   Clear
12:55 AM 60.8 °F 51.8 °F 72% 29.94 in 10.0 mi South 10.4 mph 17.3 mph N/A   Clear
1:15 AM 60.8 °F 51.8 °F 72% 29.93 in 10.0 mi South 12.7 mph - N/A   Clear
1:35 AM 60.8 °F 51.8 °F 72% 29.93 in 10.0 mi South 10.4 mph - N/A   Clear
1:55 AM 60.8 °F 51.8 °F 72% 29.93 in 10.0 mi South 11.5 mph 16.1 mph N/A   Clear
2:15 AM 60.8 °F 51.8 °F 72% 29.93 in 10.0 mi South 10.4 mph - N/A   Clear
2:35 AM 60.8 °F 51.8 °F 72% 29.93 in 10.0 mi South 10.4 mph - N/A   Clear
2:55 AM 60.8 °F 51.8 °F 72% 29.93 in 10.0 mi South 9.2 mph - N/A   Clear
3:15 AM 60.8 °F 53.6 °F 77% 29.92 in 10.0 mi South 10.4 mph - N/A   Clear
3:35 AM 60.8 °F 53.6 °F 77% 29.92 in 10.0 mi South 11.5 mph 17.3 mph N/A   Clear
3:55 AM 60.8 °F 53.6 °F 77% 29.91 in 10.0 mi South 11.5 mph 18.4 mph N/A   Clear
4:15 AM 60.8 °F 53.6 °F 77% 29.91 in 10.0 mi South 9.2 mph - N/A   Clear
4:35 AM 60.8 °F 53.6 °F 77% 29.91 in 10.0 mi South 10.4 mph - N/A   Clear
4:55 AM 60.8 °F 55.4 °F 82% 29.91 in 10.0 mi South 13.8 mph 20.7 mph N/A   Clear
5:15 AM 60.8 °F 55.4 °F 82% 29.91 in 10.0 mi South 12.7 mph 18.4 mph N/A   Clear
5:35 AM 60.8 °F 55.4 °F 82% 29.90 in 10.0 mi South 11.5 mph 21.9 mph N/A   Clear
5:55 AM 60.8 °F 55.4 °F 82% 29.90 in 10.0 mi South 12.7 mph 18.4 mph N/A   Clear
6:15 AM 60.8 °F 55.4 °F 82% 29.90 in 10.0 mi South 12.7 mph 19.6 mph N/A   Clear
6:35 AM 60.8 °F 57.2 °F 88% 29.89 in 10.0 mi South 15.0 mph 20.7 mph N/A   Clear
6:55 AM 60.8 °F 57.2 °F 88% 29.90 in 10.0 mi South 17.3 mph 23.0 mph N/A   Clear
7:15 AM 60.8 °F 57.2 °F 88% 29.90 in 10.0 mi South 12.7 mph 18.4 mph N/A   Clear
7:35 AM 62.6 °F 57.2 °F 82% 29.91 in 10.0 mi South 15.0 mph 23.0 mph N/A   Scattered Clouds
7:55 AM 62.6 °F 57.2 °F 82% 29.91 in 10.0 mi South 17.3 mph 21.9 mph N/A   Partly Cloudy
8:15 AM 62.6 °F 57.2 °F 82% 29.91 in 10.0 mi South 17.3 mph 25.3 mph N/A   Clear
8:35 AM 62.6 °F 57.2 °F 82% 29.90 in 9.0 mi South 15.0 mph 23.0 mph N/A   Mostly Cloudy
8:55 AM 62.6 °F 57.2 °F 82% 29.89 in 10.0 mi South 12.7 mph 23.0 mph N/A   Mostly Cloudy
9:15 AM 62.6 °F 59.0 °F 88% 29.90 in 10.0 mi South 12.7 mph 19.6 mph N/A   Partly Cloudy
9:35 AM 62.6 °F 57.2 °F 82% 29.90 in 10.0 mi South 10.4 mph 17.3 mph N/A   Scattered Clouds
9:55 AM 64.4 °F 59.0 °F 83% 29.90 in 9.0 mi SSW 9.2 mph - N/A   Mostly Cloudy
10:15 AM 64.4 °F 59.0 °F 83% 29.91 in 10.0 mi SSW 11.5 mph 16.1 mph N/A   Mostly Cloudy
10:35 AM 64.4 °F 57.2 °F 77% 29.90 in 10.0 mi SSW 9.2 mph 18.4 mph N/A   Overcast
10:55 AM 64.4 °F 57.2 °F 77% 29.90 in 10.0 mi SSW 10.4 mph - N/A   Overcast
11:15 AM 64.4 °F 57.2 °F 77% 29.90 in 10.0 mi SSW 8.1 mph - N/A   Overcast
11:35 AM 64.4 °F 57.2 °F 77% 29.90 in 10.0 mi SSW 12.7 mph 16.1 mph N/A   Overcast
11:55 AM 64.4 °F 57.2 °F 77% 29.89 in 9.0 mi SSW 10.4 mph 19.6 mph N/A Thunderstorm Overcast
12:15 PM 62.6 °F 59.0 °F 88% 29.90 in 3.0 mi SW 13.8 mph 19.6 mph 0.09 in Thunderstorm Thunderstorm
12:35 PM 60.8 °F 59.0 °F 94% 29.88 in 5.0 mi SSW 11.5 mph - 0.14 in   Overcast
12:55 PM 62.6 °F 59.0 °F 88% 29.87 in 6.0 mi South 8.1 mph - 0.14 in Thunderstorm Overcast
1:15 PM 64.4 °F 60.8 °F 88% 29.87 in 7.0 mi South 10.4 mph - N/A   Mostly Cloudy
1:35 PM 62.6 °F 59.0 °F 88% 29.87 in 7.0 mi South 10.4 mph - N/A   Mostly Cloudy
1:55 PM 62.6 °F 60.8 °F 94% 29.87 in 7.0 mi SSW 10.4 mph - N/A   Scattered Clouds
2:15 PM 62.6 °F 59.0 °F 88% 29.87 in 8.0 mi SSW 13.8 mph 18.4 mph N/A   Scattered Clouds
2:35 PM 64.4 °F 59.0 °F 83% 29.87 in 8.0 mi SW 12.7 mph 19.6 mph N/A   Partly Cloudy
2:55 PM 64.4 °F 60.8 °F 88% 29.87 in 9.0 mi SSW 10.4 mph - N/A   Scattered Clouds
3:15 PM 64.4 °F 59.0 °F 83% 29.86 in 8.0 mi South 10.4 mph - N/A   Mostly Cloudy
3:35 PM 64.4 °F 59.0 °F 83% 29.86 in 7.0 mi SSW 10.4 mph - N/A   Mostly Cloudy
3:55 PM 64.4 °F 60.8 °F 88% 29.86 in 8.0 mi SW 12.7 mph - N/A   Partly Cloudy
4:15 PM 66.2 °F 60.8 °F 83% 29.87 in 8.0 mi South 10.4 mph - N/A   Partly Cloudy
4:35 PM 64.4 °F 60.8 °F 88% 29.87 in 9.0 mi South 12.7 mph 16.1 mph N/A   Partly Cloudy
4:55 PM 62.6 °F 60.8 °F 94% 29.88 in 6.0 mi South 10.4 mph - N/A   Partly Cloudy
5:15 PM 64.4 °F 60.8 °F 88% 29.89 in 7.0 mi South 10.4 mph - N/A   Scattered Clouds
5:35 PM 64.4 °F 60.8 °F 88% 29.89 in 7.0 mi SSW 9.2 mph - N/A   Partly Cloudy
5:55 PM 64.4 °F 59.0 °F 83% 29.91 in 9.0 mi SW 6.9 mph - N/A   Scattered Clouds
6:15 PM 64.4 °F 51.8 °F 64% 29.92 in 10.0 mi WSW 9.2 mph - N/A   Partly Cloudy
6:35 PM 62.6 °F 44.6 °F 52% 29.93 in 10.0 mi West 5.8 mph - N/A   Clear
6:55 PM 60.8 °F 44.6 °F 55% 29.95 in 10.0 mi West 5.8 mph - N/A   Clear
7:15 PM 59.0 °F 44.6 °F 59% 29.96 in 10.0 mi West 4.6 mph - N/A   Clear
7:35 PM 59.0 °F 44.6 °F 59% 29.97 in 10.0 mi West 6.9 mph - N/A   Clear
7:55 PM 57.2 °F 42.8 °F 59% 29.98 in 10.0 mi West 5.8 mph - N/A   Clear
8:15 PM 57.2 °F 42.8 °F 59% 29.99 in 10.0 mi West 4.6 mph - N/A   Clear
8:35 PM 57.2 °F 42.8 °F 59% 30.00 in 10.0 mi West 5.8 mph - N/A   Clear
8:55 PM 55.4 °F 42.8 °F 63% 30.01 in 10.0 mi West 4.6 mph - N/A   Clear
9:15 PM 55.4 °F 42.8 °F 63% 30.02 in 10.0 mi West 4.6 mph - N/A   Clear
9:35 PM 53.6 °F 41.0 °F 62% 30.02 in 10.0 mi WSW 5.8 mph - N/A   Clear
9:55 PM 53.6 °F 41.0 °F 62% 30.02 in 10.0 mi WSW 3.5 mph - N/A   Clear
10:15 PM 51.8 °F 41.0 °F 67% 30.02 in 10.0 mi SW 3.5 mph - N/A   Clear
10:35 PM 53.6 °F 41.0 °F 62% 30.03 in 10.0 mi WSW 5.8 mph - N/A   Clear
10:55 PM 51.8 °F 41.0 °F 67% 30.03 in 10.0 mi WSW 6.9 mph - N/A   Clear
11:15 PM 51.8 °F 41.0 °F 67% 30.03 in 10.0 mi WSW 8.1 mph - N/A   Clear
11:35 PM 51.8 °F 39.2 °F 62% 30.04 in 10.0 mi WSW 6.9 mph - N/A   Clear
11:55 PM 51.8 °F 37.4 °F 58% 30.05 in 10.0 mi West 10.4 mph - N/A   Clear